Мышкино

Россия / Ярославская область     57°53′23″N   38°03′17″E
темп.,
°C
ветер,
м/с
пор.,
м/с
влажн.,
%
обл.,
%
осадки,
мм/ч
давл.,
гПа
погр.,
м
13 апреля, вт
вт1300:00+8ююв51280100 0.0 1028404
03:00+6юв31092100 0.0 1027248
06:00+6юв399686 0.0 1026202
09:00+10ююв41081100 0.0 1025337
12:00+17ю51056100 0.0 1023775
15:00+19ю5950100 0.0 10221118
18:00+16ю4105499 0.0 1021382
21:00+13ю41367100 0.0 1022274
14 апреля, ср
ср1400:00+10ю3127391 0.0 1021239
03:00+9ю312772 0.0 1020215
06:00+8ю312777 0.0 1020258
09:00+13ю4116167 0.0 1019404
12:00+17ю61254100 0.0 10191203
15:00+18ююз5951100 0.0 10181502
18:00+16ю4857100 0.0 1017309
21:00+13ююз2765100 0.0 1018151
15 апреля, чт
чт1500:00+11сз118168 0.1 101813
03:00+7ссв3796100 0.1 1019254
06:00+6с3896100 0.0 1019265
09:00+6ссв4991100 0.0 1020388
12:00+6ссв51088100 0.1 1022491
15:00+5св61288100 0.1 1023533
18:00+5св51287100 0.0 1023539
21:00+4св51291100 0.2 1024530
16 апреля, пт
пт1600:00+4св51291100 0.1 1024553
03:00+4св51189100 0.1 1025493
06:00+3св41079100 0.0 1025464
09:00+4св596996 0.0 1026525
12:00+8всв575580 0.0 1026823
15:00+10всв684764 0.0 10261020
18:00+9св595234 0.0 1026900
21:00+5св4126443 0.0 1028338
17 апреля, сб
сб1700:00+4всв4136867 0.0 1028352
03:00+2св411746 0.0 1029294
06:00+1св4117833 0.0 1030277
09:00+6всв595614 0.0 1031514
12:00+10всв56405 0.0 10311058
15:00+11св56394 0.0 10301247
18:00+10св47480 0.0 1030612
21:00+5св38651 0.0 1031130